SCP
0 0 0 0 0 0 0 0 0 0 0 0 0 0 0 0 0 0 0 0 0 0 0 0 0 0 0 0 0 0 0 0 0 0 0 0 0 0 0 0 0 0 0 0
0 0 0 0 0 0 0 0 0 0 0 0 0 0 0 0 0 0 0 0 0 0 0 0 0 0 0 0 0 0 0 0 0 0 0 0 0 0 0 0 0 0 0 0
0 0 0 0 0 0 0 0 0 0 0 0 0 0 0 0 0 0 0 0 0 0 0 0 0 0 0 0 0 0 0 0 0 0 0 0 0 0 0 0 0 0 0 0
0 0 0 0 0 0 0 0 0 0 0 0 0 0 0 0 0 0 0 0 0 0 0 0 0 0 0 0 0 0 0 0 0 0 0 0 0 0 0 0 0 0 0 0
0 0 0 0 0 0 0 0 0 0 0 0 0 0 0 0 0 0 0 0 0 0 0 0 0 0 0 0 0 0 0 0 0 0 0 0 0 0 0 0 0 0 0 0
0 0 0 0 0 0 0 0 0 0 0 0 0 0 0 0 0 0 0 0 0 0 0 0 0 0 0 0 0 0 0 -0 -0 -0 0 0 0 0 0 0 0 0 0 0
0 0 0 0 0 0 0 0 0 0 0 0 0 0 0 0 0 0 0 0 0 0 0 0 0 0 0 0 0 0 0 0 -0 0 0 0 0 0 0 0 0 0 0 0
0 0 0 0 0 0 0 0 0 0 0 0 0 0 0 0 0 0 0 0 0 0 -0 -0 0 0 0 0 0 0 0 0 0 0 0 0 0 0 0 0 0 0 0 0
0 0 0 0 0 0 0 0 0 0 0 0 0 0 0 0 0 0 0 0 0 -0 -0 -0 -0 -0 0 0 0 0 0 0 0 0 0 0 0 0 0 0 0 0 0 0
0 0 0 0 0 0 0 0 0 0 0 0 0 0 0 0 0 0 0 0 -0 -0 -0 -0 -0 -0 -0 -0 0 0 0 0 0 0 0 0 0 0 0 0 0 0 0 0
0 0 0 0 0 0 0 0 0 0 0 0 0 0 0 0 0 0 0 0 0 0 0 0 -0 -0 -0 -0 0 0 0 0 0 0 0 0 0 0 0 0 0 0 0 0
0 0 0 0 0 0 0 0 0 0 0 0 0 0 0 0 0 0 0 0 0 0 0 0 0 0 0 0 0 0 0 0 0 0 0 0 0 0 0 0 0 0 0 0
0 0 0 0 0 0 0 0 0 0 0 0 0 0 0 0 0 0 0 0 0 0 0 0 0 0 0 0 0 0 0 -0 0 0 0 0 0 0 0 0 0 0 0 0
0 0 0 0 0 0 0 0 0 0 0 0 0 0 0 0 0 0 0 0 0 0 0 0 0 0 0 0 -0 -0 -0 0 0 0 0 0 0 0 0 0 0 0 0 0
0 0 0 0 0 0 0 0 0 0 0 0 0 0 0 0 0 0 0 0 0 0 0 0 0 0 0 0 -0 -0 -0 0 0 0 0 0 0 0 0 0 0 0 0 0
0 0 0 -0 -0 -0 0 0 0 0 0 0 0 0 0 0 0 0 0 0 0 0 0 0 0 0 0 0 0 0 0 0 0 0 0 0 0 0 0 0 0 0 0 0
0 0 -0 -0 0 0 0 0 0 0 0 0 0 0 0 0 0 0 0 0 0 0 0 0 0 0 0 0 0 0 0 0 0 0 0 0 0 0 0 0 0 0 0 0
0 0 0 0 0 0 0 0 0 0 0 0 0 0 0 0 0 0 0 0 0 0 0 0 0 0 0 0 0 0 0 0 0 0 0 0 0 0 0 0 0 0 0 0
0 0 0 0 0 0 0 0 0 0 0 0 0 0 0 0 0 0 0 0 0 0 0 0 0 0 0 0 0 0 0 0 0 0 0 0 0 0 0 0 0 0 0 0
0 0 0 0 0 0 0 0 0 0 0 0 0 0 0 0 0 0 0 0 0 0 0 0 0 0 0 0 0 0 0 0 0 0 0 0 0 0 0 0 0 0 0 0
0 0 0 0 0 -0 -0 0 0 0 0 0 0 0 0 0 0 0 0 0 0 0 0 0 0 0 0 0 0 0 0 0 0 0 0 0 0 0 0 0 0 0 0 0
0 0 0 0 0 -0 -0 0 0 0 0 0 0 0 0 0 0 0 0 0 0 0 0 0 0 0 0 0 0 0 0 0 0 0 0 0 0 0 0 0 0 0 0 0
-0 -0 -0 -0 0 0 0 0 0 0 0 0 0 0 0 0 0 0 0 0 0 0 0 0 0 0 0 0 0 0 0 0 0 0 0 0 0 0 0 0 0 0 0 0
-0 -0 -0 -0 0 0 0 0 0 0 0 0 0 0 0 0 0 0 0 0 0 0 0 0 0 0 0 0 0 0 0 0 0 0 0 0 0 0 0 0 0 0 0 0
-0 -0 -0 0 0 0 0 0 0 0 0 0 0 0 0 0 0 0 0 0 0 0 0 0 0 0 0 0 0 0 0 0 0 0 0 0 0 0 0 0 0 0 0 0
-0 -0 0 0 0 0 0 0 0 0 0 0 0 0 0 0 0 0 0 0 0 0 0 0 0 0 0 0 0 0 0 0 0 0 0 0 0 0 0 0 0 0 0 0
0 0 0 0 0 0 0 0 0 0 0 0 0 0 0 0 0 0 0 0 0 0 0 0 0 0 0 0 0 0 0 0 0 0 0 0 0 0 0 0 0 0 0 0
Wind_Speed
5 3 3 4 4 6 7 7 8 8 7 8 6 5 5 4 2 2 3 4 7 8 7 7 7 7 8 8 8 8 9 10 12 10 9 8 9 9 8 9 10 9 8 8
2 1 2 3 5 5 5 5 6 5 6 4 3 2 2 3 2 1 1 1 2 3 4 5 7 7 7 7 7 7 9 10 8 6 7 8 9 8 8 9 9 8 9 9
2 2 1 5 5 5 4 3 5 6 5 1 2 5 5 5 5 4 4 3 2 1 2 2 3 4 5 5 4 5 6 6 5 6 8 8 8 7 9 9 8 9 10 10
1 1 5 7 2 3 4 2 3 2 1 2 4 4 6 6 6 7 7 7 6 4 4 3 2 1 2 3 3 3 3 4 4 4 6 5 6 8 9 7 7 9 10 10
3 2 6 5 2 3 4 2 3 4 3 3 4 4 8 9 8 7 7 6 6 7 6 7 6 5 6 5 4 3 1 2 2 2 4 4 6 8 7 6 8 8 7 10
4 3 6 7 1 2 3 4 3 4 4 2 2 4 2 5 7 9 9 8 9 9 10 11 9 7 9 8 7 6 4 3 2 2 3 4 5 6 4 5 7 7 8 9
4 4 8 4 1 3 3 7 3 4 3 3 4 4 4 4 7 7 8 9 10 11 11 10 7 9 11 10 8 6 5 5 5 4 3 3 3 3 3 4 5 6 8 8
4 3 8 2 4 6 6 1 3 4 4 7 9 8 7 6 7 7 8 9 9 10 9 7 7 9 10 8 5 5 6 7 6 6 5 5 4 4 4 4 5 6 7 8
8 8 5 3 4 2 3 3 3 4 5 9 9 8 7 6 6 6 7 7 6 7 8 7 7 7 8 5 4 5 7 7 6 6 5 5 4 5 4 4 4 5 5 6
4 7 4 4 3 2 2 3 4 6 8 10 10 9 8 6 5 5 5 5 4 6 7 5 5 6 4 3 4 5 5 5 5 5 6 6 4 4 4 4 4 5 5 6
5 6 3 2 3 3 4 6 8 9 9 10 11 9 7 6 5 4 4 3 3 4 4 3 3 4 4 3 3 4 4 4 4 4 4 5 5 4 4 4 5 6 6 6
7 6 5 3 2 5 7 8 9 11 10 8 9 9 7 5 4 3 3 2 2 2 2 1 2 3 3 3 2 3 3 4 3 4 4 4 5 6 7 7 11 11 10 10
3 1 3 4 5 6 7 8 10 10 11 9 6 7 7 5 3 3 3 2 2 1 1 1 2 3 4 3 2 2 2 4 4 4 4 5 5 6 8 9 10 12 13 13
2 5 6 4 6 8 10 11 11 10 8 8 6 6 6 5 3 3 2 1 1 1 1 2 2 4 4 3 3 3 3 5 5 4 4 5 5 6 6 8 9 9 10 13
7 7 8 8 10 10 9 10 11 8 6 6 5 5 5 4 3 1 1 1 0 1 2 3 4 5 5 3 3 4 4 4 4 4 5 5 6 6 7 8 8 9 9 10
10 13 13 13 12 10 9 9 8 6 5 4 3 3 3 3 2 1 1 1 1 2 4 4 5 5 4 3 3 3 4 8 7 5 5 6 6 7 8 8 9 9 9 9
11 9 10 11 9 8 6 5 4 3 3 3 2 2 1 1 0 2 3 3 2 3 4 4 5 5 4 3 3 3 4 5 9 6 5 6 6 7 8 9 9 9 9 11
8 8 8 9 8 7 5 3 2 1 1 1 1 1 1 1 3 4 4 3 3 4 4 3 3 3 4 4 3 3 3 4 5 5 6 6 7 7 8 9 9 11 10 10
10 10 8 8 6 5 3 2 2 2 1 0 0 1 2 3 4 4 3 3 3 4 4 4 5 4 4 5 5 3 4 5 5 6 6 8 8 8 8 9 9 9 10 10
9 8 6 5 3 2 1 2 1 1 1 0 1 2 3 4 3 3 2 2 2 3 2 3 3 3 4 5 7 4 5 5 6 6 7 7 8 8 8 9 9 9 9 9
6 4 3 1 1 1 1 1 1 2 2 1 2 3 4 4 3 1 1 2 2 2 2 4 3 3 4 5 6 4 5 5 6 6 7 7 8 8 9 9 9 9 9 9
2 1 1 2 2 3 3 2 2 2 3 2 2 2 2 3 2 1 0 1 1 2 3 3 3 4 6 6 4 4 5 6 6 6 7 7 8 8 9 9 9 9 9 9
2 3 3 3 3 3 3 2 2 2 2 2 2 2 2 2 1 0 1 1 2 4 3 3 5 7 8 5 4 5 6 7 7 7 7 8 8 8 9 10 9 9 9 9
3 4 4 3 2 2 2 3 3 2 2 2 2 1 1 0 1 1 1 3 4 5 4 4 7 8 7 4 5 5 6 7 7 7 7 7 8 8 8 9 9 9 9 10
3 3 3 2 1 1 2 3 3 2 2 2 3 3 2 1 1 1 3 4 5 5 4 6 8 8 6 5 5 6 6 7 7 8 8 8 8 8 8 9 9 9 8 8
2 2 2 2 2 2 2 1 1 2 1 1 2 2 2 3 3 3 3 5 6 6 4 4 5 6 5 5 6 6 6 7 8 7 8 8 9 9 8 9 11 9 9 8
2 2 2 2 2 2 2 2 1 2 1 0 1 1 2 3 3 4 5 4 4 4 4 4 4 4 5 5 5 6 6 7 7 7 8 8 8 8 9 10 9 8 8 9
Wind_Direction
230 232 186 214 220 182 186 195 197 230 230 260 281 280 282 279 253 204 218 213 209 211 213 210 208 207 206 207 197 189 190 202 214 214 211 211 212 213 212 212 218 217 220 225
274 242 210 241 243 216 210 210 223 243 256 260 298 318 359 3 46 70 273 253 235 222 213 209 209 209 206 207 197 185 199 215 220 213 214 218 220 217 215 218 218 216 221 225
250 311 26 264 239 202 201 204 195 216 237 320 36 36 22 18 41 39 20 26 27 305 253 242 229 209 207 209 178 181 207 221 216 212 220 226 226 222 224 224 219 222 226 225
149 69 235 247 284 174 161 215 227 230 220 134 114 94 49 33 47 46 33 31 31 29 26 10 16 72 112 105 130 169 211 236 236 227 233 232 224 229 231 225 223 229 232 229
127 200 274 285 216 158 162 246 206 185 176 166 161 84 41 27 41 51 47 41 43 41 44 44 42 53 78 74 76 74 12 311 286 241 238 237 236 239 235 227 231 230 233 233
127 172 243 253 203 148 112 276 211 179 176 186 118 83 29 12 41 46 45 49 49 48 50 50 41 58 69 62 55 37 16 1 347 297 254 250 251 253 244 235 245 248 247 242
157 213 260 255 144 116 174 242 190 169 155 118 106 129 128 62 54 53 50 54 58 58 53 42 40 63 65 56 45 27 27 30 22 7 332 307 303 287 272 261 261 258 258 256
149 198 259 213 139 180 215 208 131 133 125 111 112 107 99 80 66 61 58 57 62 66 57 39 39 63 64 50 27 26 34 33 21 10 5 5 349 331 314 297 285 280 276 276
187 212 238 219 209 214 160 139 140 139 131 124 116 109 100 88 80 70 68 63 62 75 67 45 36 56 64 31 16 34 38 28 13 9 3 356 353 344 335 326 308 298 290 286
245 263 248 239 230 203 154 135 133 132 127 123 118 113 106 98 88 80 73 74 72 76 71 49 32 44 50 23 25 44 37 17 5 4 356 352 349 340 331 322 313 308 303 297
252 272 283 249 204 165 122 113 113 113 115 122 119 115 114 107 98 93 87 77 77 83 80 51 24 26 17 14 29 36 22 4 354 350 342 335 331 314 308 287 283 290 291 290
227 230 194 217 149 137 124 121 121 114 101 102 112 116 112 109 109 108 103 95 92 91 88 30 5 360 351 355 13 20 360 345 335 329 326 326 324 321 308 296 300 294 278 274
231 140 120 93 87 95 104 106 107 108 113 109 103 113 119 119 119 114 110 115 137 172 225 295 318 322 323 329 337 340 318 311 310 314 316 319 320 318 317 317 310 303 298 295
103 101 81 69 88 90 97 97 95 93 99 109 113 113 114 113 113 115 131 192 203 219 276 296 304 303 304 313 312 309 306 307 311 302 305 307 309 308 306 308 313 312 309 303
56 87 104 96 87 85 90 98 98 95 97 95 103 113 119 123 131 156 213 229 174 311 307 308 304 299 306 315 313 310 311 307 305 303 304 304 307 308 307 306 305 305 309 309
86 85 90 90 88 88 91 97 101 103 105 104 109 123 138 145 155 218 275 260 265 291 296 301 295 295 313 324 321 314 309 318 324 317 317 319 320 318 316 312 310 309 310 311
95 94 97 97 92 88 84 88 102 114 118 129 156 159 140 124 329 298 292 288 275 278 288 291 292 307 324 325 319 314 316 321 331 329 323 322 321 319 317 314 311 310 309 308
88 100 106 110 108 98 87 82 105 150 180 201 159 133 193 240 263 276 288 309 320 317 313 308 311 328 339 340 340 330 326 324 327 325 324 323 321 317 315 313 314 315 314 314
83 88 89 94 103 114 127 162 214 230 246 220 183 262 269 267 266 278 296 310 306 300 309 336 356 7 356 352 1 349 341 337 335 332 327 322 320 319 318 316 316 315 314 316
70 73 79 82 94 117 169 228 246 279 293 267 269 290 293 288 285 290 297 289 274 267 295 339 6 13 4 360 10 1 352 346 338 333 330 326 323 321 319 318 319 318 318 319
61 57 53 41 9 309 287 292 295 297 305 293 252 259 271 285 296 287 277 292 311 354 23 34 34 18 10 9 12 4 355 347 340 335 330 326 323 322 322 323 323 322 322 323
27 355 330 328 325 314 317 326 311 301 303 296 281 272 277 293 313 343 293 247 335 52 53 40 30 28 24 18 7 0 353 346 340 333 330 328 326 324 324 324 323 323 323 322
344 333 326 321 308 301 321 333 323 299 284 284 287 283 269 272 276 244 313 12 76 76 63 47 39 35 29 19 5 358 352 347 342 336 330 327 324 322 321 322 321 321 322 322
321 315 312 314 326 341 331 324 329 320 307 307 310 298 257 23 8 18 85 95 92 83 69 54 45 35 26 15 4 357 352 346 340 335 330 326 324 323 323 322 321 321 321 323
309 312 323 337 338 308 296 312 332 347 1 1 2 9 20 76 120 85 89 90 87 79 66 47 39 31 23 9 3 356 349 345 342 337 333 332 330 329 329 327 328 327 327 327
338 330 324 316 298 293 297 307 313 316 330 357 10 16 35 57 81 91 91 87 81 73 59 40 29 22 15 7 2 358 352 347 346 343 339 337 335 336 334 334 334 333 332 331
357 354 350 350 344 337 327 320 312 308 308 326 19 31 59 72 80 87 88 84 77 65 51 36 27 20 15 10 7 3 358 353 351 348 345 343 343 341 339 339 338 337 338 338